Regional Weather Roundup
Issued by NWS

Home | Current Version | Previous Version | Graphics & Text | Print | Product List | Glossary On
Versions: 1 2 3 4 5 6 7 8 9 10 11 12 13 14 15 16 17 18 19 20 21 22 23 24 25 26 27 28 29
000
ASUS45 KSLC 251310
RWRUT

UTAH REGIONAL WEATHER ROUNDUP
NATIONAL WEATHER SERVICE SALT LAKE CITY UT
700 AM MDT SAT OCT 25 2014

UTZ001>011-023>025-251400-

NORTHERN UTAH

CITY           SKY/WX    TMP DP  RH WIND       PRES   REMARKS
BRIGHAM CITY   CLEAR     46  34  64 CALM      30.08S
HILL AFB       CLEAR     53  27  35 SE9       30.09S
LOGAN          CLEAR     34  31  88 CALM      30.10R
OGDEN          CLEAR     51  28  41 S10       30.07S
PROVO AIRPORT  CLEAR     46  28  49 E7        30.14S
SALT LAKE CITY CLEAR     54  30  40 SE10      30.07R
VERNAL         CLEAR     41  30  65 W6        30.24S
WENDOVER       CLEAR     39  30  70 W7        30.06R WCI  34
HEBER CITY     CLEAR     32  28  86 CALM      30.21R
WEST JORDAN    CLEAR     63  36  36 W5        30.11R

$$

UTZ012>022-026-027-251400-

SOUTHERN/CENTRAL UTAH

CITY           SKY/WX    TMP DP  RH WIND       PRES   REMARKS
BLANDING       CLEAR     44  30  59 NW5       30.37R
BRYCE CANYON   CLEAR     27  23  85 SW3       30.35F
CEDAR CITY     PTCLDY    47  33  58 SW5       30.20S
DELTA          CLEAR     54  29  39 S7        30.14S
HANKSVILLE       N/A     37  30  75 CALM      30.23R
MILFORD        CLEAR     40  29  64 S8        30.16S WCI  34
MOAB/CYNLANDS  CLEAR     50  33  52 CALM      30.20R
PRICE          CLEAR     44  32  62 CALM      30.26R
ST GEORGE      SUNNY     54  32  43 W3        30.14R
KANAB            N/A     39  30  70 NE3       30.27R

$$

REGIONAL REPORTS     COLORADO/ARIZONA

CITY           SKY/WX    TMP DP  RH WIND       PRES   REMARKS
CRAIG, CO      PTCLDY    26  21  81 W3        30.32S
GRAND JUNCTION CLEAR     43  31  62 SE12      30.25S
RIFLE          CLEAR     34  29  82 SE7       30.32S WCI  28
MONTROSE       PTCLDY    40  28  62 S9        30.33S WCI  34
CORTEZ         CLEAR     31  26  82 CALM      30.32R
PAGE, AZ       CLEAR     55  33  43 W5        30.20R
GRAND CANYON   PTCLDY    30  23  75 CALM      30.34R SMOKE
KINGMAN        CLEAR     63  41  44 SE16      30.12S
FLAGSTAFF      CLEAR     37  33  85 CALM      30.35S

$$

REGIONAL REPORTS    NEVADA/IDAHO/WYOMING

CITY           SKY/WX    TMP DP  RH WIND       PRES   REMARKS
LAS VEGAS, NV  PTCLDY    65  39  38 SW3       29.98S
ELY            CLEAR     42  28  57 S13       30.14F
ELKO           CLEAR     54  28  36 SW7       30.00S
POCATELLO, ID  CLEAR     37  31  78 N7        30.03S WCI  32
BURLEY         CLEAR     44  34  67 E8        29.96S
EVANSTON, WY   CLEAR     48  19  31 E6        30.24R
ROCK SPRINGS   PTCLDY    40  26  57 E6        30.25S

$$



USA.gov is the U.S. government's official web portal to all federal, state and local government web resources and services.